Location: Sewell
(39.7660°N, 75.1450°W)
Time: 18:52:21
(UTC-04:00)

ISS - Visible Passes

Search period start: 19 April 2014 00:00
Search period end: 29 April 2014 00:00
Orbit: 414 x 419 km, 51.6° (Epoch: 19 April)

Date Brightness Start Highest point End Pass type
(mag) Time Alt. Az. Time Alt. Az. Time Alt. Az.
19 Apr -1.2 20:41:55 10° NNW 20:44:26 19° NNE 20:46:45 11° ENE visible
19 Apr -0.9 22:18:09 10° NW 22:19:39 24° WNW 22:19:39 24° WNW visible
20 Apr -3.1 21:29:43 10° NW 21:33:03 60° NE 21:33:08 60° NE visible
21 Apr -2.3 20:41:20 10° NW 20:44:29 36° NNE 20:46:36 17° E visible
21 Apr -0.7 22:18:17 10° WNW 22:19:30 18° W 22:19:30 18° W visible
22 Apr -2.7 21:29:25 10° WNW 21:32:38 45° SW 21:32:58 43° SSW visible
23 Apr -3.3 20:40:42 10° NW 20:44:03 84° SW 20:46:26 18° SE visible
24 Apr -0.9 21:29:40 10° W 21:31:45 16° SW 21:32:49 14° SSW visible
25 Apr -1.6 20:40:16 10° WNW 20:43:10 27° SW 20:46:03 10° SSE visible
